Theta_e
324 320 319 322 321 321 320 319 320 321 321 321 320 320 319 321 321 320 321 321 321 321 323 325 325 324 324 324 323 322 320 316 317 317 316 316 316 315 316 326 327 328 326 330
320 319 321 322 321 321 320 320 320 321 321 320 318 319 318 318 319 320 320 321 320 324 325 325 325 324 324 324 323 323 322 320 317 316 316 315 315 315 315 315 320 326 329 332
320 321 322 322 321 321 320 320 319 318 318 318 317 317 317 319 320 320 320 319 318 323 324 325 325 324 324 324 323 323 322 321 319 318 317 317 314 314 314 315 316 319 319 323
320 321 322 321 322 319 320 320 319 319 317 316 319 318 318 318 319 319 319 318 319 319 319 323 324 324 324 324 323 322 321 321 321 320 319 316 315 314 315 315 314 313 315 314
323 322 321 322 321 320 319 320 319 319 317 317 319 318 320 318 318 320 320 321 319 320 320 321 322 324 325 323 322 321 321 322 321 321 320 317 315 315 314 314 314 313 313 313
322 322 322 321 321 321 320 318 319 318 316 318 319 319 317 318 320 320 320 319 321 321 320 319 320 324 324 323 321 322 321 321 321 320 319 318 317 316 314 314 312 312 312 312
321 321 321 321 321 320 318 315 317 319 318 320 319 318 316 319 319 318 317 318 320 320 320 319 318 318 320 321 321 320 320 319 321 321 319 317 316 316 315 313 314 315 312 311
322 322 321 320 319 319 318 317 316 321 319 320 319 318 316 318 318 318 318 319 320 320 319 319 318 316 316 317 318 317 317 318 316 319 318 317 316 315 314 314 315 317 315 312
321 321 319 320 319 317 318 317 316 317 320 319 318 318 318 319 319 318 318 318 319 319 319 318 316 315 315 314 315 316 317 319 320 317 316 315 314 314 314 314 314 314 314 313
320 318 318 319 319 319 318 317 316 319 321 320 321 321 320 318 317 319 317 318 317 317 319 318 316 315 314 314 314 314 316 317 316 316 315 314 314 313 314 314 314 313 313 312
319 318 320 318 319 318 316 315 316 318 321 318 321 318 317 317 314 314 316 318 317 316 316 315 314 314 315 315 315 315 315 315 315 314 313 313 313 314 313 313 313 312 312 311
319 320 321 319 317 317 317 318 318 321 320 320 321 319 315 315 314 315 315 317 316 315 317 315 314 314 313 313 313 314 313 313 313 313 313 313 313 312 312 312 312 311 309 309
317 316 314 317 317 317 318 317 315 315 316 318 319 317 317 316 315 315 315 315 314 313 312 312 312 312 313 312 311 313 312 312 311 311 311 311 311 311 309 307 308 308 307 307
315 315 316 316 318 319 317 317 317 316 317 317 318 319 315 315 313 314 314 312 312 312 312 312 312 311 311 311 310 310 310 309 309 308 308 309 309 307 306 307 306 306 306 306
315 317 319 320 319 318 317 318 317 316 317 317 316 316 315 313 312 313 313 312 311 311 310 310 310 310 310 310 309 308 308 308 307 306 306 305 305 305 304 305 305 306 305 308
316 317 318 319 319 317 316 317 317 318 317 317 316 315 313 313 312 313 311 310 310 310 310 309 308 309 309 308 308 307 307 306 305 305 304 304 304 304 304 304 305 305 306 309
317 317 318 318 317 316 314 318 317 316 316 316 315 314 312 312 312 312 311 310 310 309 309 308 307 307 307 306 306 306 305 305 305 304 305 305 304 304 304 303 304 304 307 310
318 319 318 316 316 317 317 316 316 316 316 314 314 313 313 312 312 312 311 311 310 309 307 306 306 306 306 305 304 304 303 304 304 303 304 304 304 303 303 303 303 306 308 312
319 319 317 314 317 316 316 316 312 313 314 314 313 313 313 313 312 310 310 310 309 306 305 305 304 304 303 303 303 303 303 302 302 303 303 302 302 302 302 302 304 308 310 314
317 317 317 315 314 315 316 315 314 314 310 313 313 313 312 312 311 310 310 308 305 304 303 302 302 302 303 304 302 302 302 301 301 301 301 301 302 302 301 303 306 309 311 315
313 313 314 313 313 314 315 314 313 311 314 313 313 313 312 311 311 309 307 304 303 302 301 301 301 302 300 301 301 301 301 301 301 301 301 301 302 302 303 305 309 311 314 315
314 312 311 312 313 312 314 313 311 313 313 313 313 312 312 310 308 306 304 303 302 301 300 301 300 300 300 300 300 300 301 301 301 301 302 302 302 303 306 309 312 313 315 318
311 313 311 312 312 314 313 313 312 312 313 313 312 312 309 307 305 304 302 301 300 300 300 300 300 300 302 303 302 302 304 303 302 302 303 304 306 308 310 312 314 315 316 318
312 314 313 313 314 313 313 312 311 312 312 312 311 309 308 305 303 302 301 300 301 300 300 300 300 301 304 305 304 304 305 305 304 305 305 306 307 310 313 314 315 315 317 317
314 314 314 313 313 312 312 311 311 312 312 310 309 308 306 303 302 301 301 300 300 300 300 301 302 303 306 307 306 307 306 306 306 306 306 306 308 311 314 314 314 316 316 316
314 313 310 312 313 312 312 310 312 310 310 309 307 306 305 302 301 301 300 300 300 300 301 303 304 306 308 309 307 307 307 307 307 306 306 308 310 311 313 313 313 316 315 316
Wind_Speed
9 1 6 2 6 5 6 7 8 8 11 5 6 7 9 16 21 23 23 24 25 9 21 23 16 11 5 4 9 12 17 12 14 15 14 15 16 16 16 13 13 18 22 22
7 6 7 6 8 7 6 8 9 7 7 8 9 14 12 13 18 27 31 32 12 29 25 22 18 14 11 9 10 16 15 11 12 13 13 15 16 16 17 17 19 17 18 19
6 8 15 5 6 7 6 5 8 8 9 8 9 10 9 21 28 30 11 17 14 22 23 22 21 18 13 13 14 14 12 10 9 13 17 19 17 17 18 18 19 20 22 22
6 14 15 7 3 7 5 10 11 11 8 4 3 11 10 11 13 12 11 14 12 13 15 22 21 18 18 16 13 12 12 9 10 12 17 20 23 24 22 22 22 23 24 24
7 12 11 6 2 8 6 3 6 9 8 7 7 3 12 9 9 20 28 26 19 31 2 8 19 21 18 16 14 13 8 1 9 14 20 23 28 28 26 24 26 24 24 25
10 24 5 5 7 5 6 8 7 5 4 3 7 4 6 7 11 16 24 29 36 38 31 32 27 16 13 16 15 14 11 7 6 18 23 24 24 27 29 30 29 27 27 26
12 11 10 17 6 6 8 8 5 5 4 6 8 7 6 8 13 16 18 22 26 25 29 31 32 27 14 1 15 13 15 9 5 21 22 20 21 25 31 33 32 30 29 31
4 7 16 18 9 4 4 1 4 6 3 8 4 5 5 7 21 20 21 26 24 26 21 22 22 25 19 14 11 12 11 14 21 19 23 20 23 30 30 29 28 35 36 36
4 4 22 14 12 4 5 3 8 5 4 4 4 8 5 15 12 12 13 18 14 20 22 19 23 26 23 17 18 20 21 14 10 17 19 21 24 25 28 29 32 36 38 37
4 5 6 12 17 8 5 6 6 4 4 10 2 6 8 11 18 10 14 15 17 18 19 22 22 20 20 19 17 16 16 18 19 17 16 19 23 24 22 23 29 34 41 40
4 3 6 8 4 11 12 8 5 0 3 1 4 5 15 15 8 7 7 10 16 13 11 16 15 20 22 19 20 22 22 20 19 19 19 17 17 20 25 31 36 41 44 41
1 2 3 8 19 12 8 6 5 1 9 7 8 10 13 13 15 18 20 14 16 22 14 20 23 22 26 24 21 22 14 14 12 12 15 19 23 26 31 36 41 45 50 44
2 2 4 8 7 11 10 14 13 12 2 6 5 6 15 18 7 16 17 14 15 19 24 27 28 28 29 29 23 19 21 22 25 28 29 30 30 34 40 48 48 46 43 41
7 3 5 5 11 13 13 15 17 11 1 4 4 5 7 10 11 20 23 27 24 23 23 26 30 31 31 22 24 28 31 33 34 36 39 39 41 45 46 44 48 44 36 36
5 5 5 9 14 17 19 19 11 9 5 1 8 13 8 10 9 18 23 24 27 28 28 26 29 30 32 37 38 37 41 42 39 39 40 40 42 41 38 37 37 34 33 29
4 3 6 8 12 16 18 12 12 12 10 2 9 13 9 17 22 18 24 30 32 32 28 33 39 36 34 34 35 36 36 38 40 43 44 42 35 33 32 31 29 34 28 21
3 2 3 5 10 15 8 8 9 7 9 9 7 5 12 13 18 21 30 31 26 30 37 42 43 40 33 33 32 34 37 40 37 36 35 32 33 30 31 28 28 29 24 20
5 3 3 5 7 2 3 5 7 9 11 10 4 10 18 21 30 27 32 21 34 37 36 43 41 39 40 39 40 38 35 31 34 35 33 30 27 30 29 27 28 22 21 18
9 3 2 2 1 9 5 7 4 4 17 4 8 18 23 29 30 27 20 31 32 35 43 39 40 40 42 39 34 34 32 33 32 29 27 32 37 31 27 25 23 18 19 17
3 2 2 2 4 4 2 8 12 17 4 18 24 18 21 26 15 15 35 33 42 44 40 41 40 40 39 30 35 35 33 32 30 30 31 31 28 27 26 21 19 17 16 18
5 5 3 4 3 4 6 12 11 5 7 26 24 25 26 13 19 35 37 45 44 41 41 40 39 36 41 34 34 34 32 30 29 30 27 24 21 17 20 19 14 12 15 13
2 2 2 3 3 4 21 9 4 9 20 25 30 29 27 24 31 35 44 42 43 43 44 41 42 39 37 33 30 28 27 26 25 21 20 17 15 16 12 10 8 8 11 9
3 1 4 6 4 13 22 14 23 26 28 25 29 27 23 30 35 40 40 41 43 42 44 44 42 42 34 29 26 25 22 19 17 16 13 10 6 7 6 7 5 7 8 6
5 6 1 4 3 11 19 21 26 27 25 25 26 24 33 34 38 37 40 42 42 44 45 45 43 40 36 29 25 20 17 13 12 12 7 4 5 5 4 6 4 7 5 5
0 4 3 4 6 16 10 26 27 22 19 26 25 29 32 37 34 35 41 42 43 45 46 42 38 36 33 26 19 15 12 11 10 9 7 3 2 7 5 7 4 3 6 6
3 2 2 3 13 9 21 30 21 23 25 22 28 32 36 36 33 37 39 41 44 45 42 38 36 31 26 25 14 13 9 9 8 8 7 3 4 3 4 1 5 6 7 7
Wind_Direction
261 15 281 357 79 26 346 331 315 295 283 354 335 332 323 327 314 293 283 272 261 235 155 154 155 163 185 280 298 306 321 304 303 310 318 323 331 337 334 327 309 281 270 283
334 247 278 8 19 360 325 299 288 285 341 13 337 312 303 294 283 274 266 264 149 148 157 167 178 194 219 246 266 288 288 286 299 310 318 322 323 323 322 320 307 302 290 280
333 293 327 43 357 322 312 338 351 333 335 353 338 312 322 302 298 295 221 149 141 149 167 175 179 187 210 233 243 253 258 261 280 305 317 315 309 311 320 312 308 299 306 302
317 332 321 338 301 44 2 351 350 338 351 293 26 296 302 283 290 300 216 171 194 218 226 190 191 208 223 213 218 230 255 257 279 293 311 327 327 321 319 320 315 310 303 307
269 298 296 321 50 31 289 318 306 294 293 315 289 249 292 301 356 18 21 20 29 35 237 196 216 224 205 201 202 206 168 48 316 314 316 321 323 315 310 312 311 307 300 299
308 317 304 55 22 358 330 354 324 339 306 323 280 20 304 37 54 33 25 29 33 28 29 41 41 99 148 170 139 153 195 177 316 303 305 313 313 315 317 316 312 307 302 297
318 22 59 31 11 346 14 13 336 346 349 252 333 2 251 64 49 44 21 16 24 19 17 19 20 26 23 7 239 245 238 244 293 283 293 297 303 310 313 316 313 310 305 302
10 324 29 352 335 295 351 29 164 267 274 282 340 263 266 96 34 19 29 19 17 9 5 4 2 3 346 340 311 328 310 265 299 244 272 280 293 302 307 312 305 302 303 304
14 287 338 332 323 61 313 310 244 272 297 303 226 272 349 77 22 37 26 4 20 8 359 7 2 352 349 335 326 302 302 296 262 280 283 290 295 301 304 307 304 301 302 303
6 320 277 307 333 315 263 296 347 309 308 278 326 325 273 9 9 19 13 37 21 4 356 340 336 331 330 322 332 298 287 301 285 287 281 289 296 300 299 301 298 298 299 304
5 156 294 338 292 328 325 321 328 253 10 270 325 294 312 9 34 10 11 28 5 357 348 327 333 338 332 336 334 319 302 288 284 281 294 291 283 283 289 293 295 295 298 300
92 261 300 288 288 289 348 350 358 127 287 251 265 273 6 342 19 355 7 31 15 2 324 330 339 337 331 334 334 329 319 304 306 301 291 284 284 287 287 289 291 292 297 295
116 339 340 326 336 345 356 330 317 312 0 326 334 287 319 311 15 4 6 22 1 348 337 332 329 329 327 320 320 309 302 312 306 299 298 294 292 294 296 300 293 294 295 295
117 169 176 227 270 297 314 309 308 298 164 309 285 300 298 12 1 359 4 346 340 335 330 322 318 317 313 317 315 312 308 307 304 301 301 296 295 297 299 291 291 293 295 296
130 202 245 289 315 311 307 314 352 353 351 112 326 322 356 357 347 341 332 336 327 322 322 325 320 309 304 305 308 305 304 302 303 303 302 302 300 299 296 292 292 295 299 297
350 293 308 286 297 299 305 329 5 359 7 297 308 314 7 327 334 332 332 327 322 319 325 321 319 308 305 303 302 301 295 295 296 299 299 297 295 295 298 294 293 296 299 297
246 253 322 265 296 313 324 15 358 340 325 326 319 305 321 325 324 321 324 314 320 326 320 316 311 305 302 304 299 299 298 297 293 295 293 291 293 292 297 292 289 297 295 294
213 264 249 277 328 275 176 59 344 311 306 317 355 325 317 319 316 316 313 312 317 312 310 311 305 304 302 301 299 300 301 293 293 294 291 291 288 293 290 287 291 284 287 294
161 165 254 315 287 267 313 27 319 315 303 78 336 329 319 317 316 313 322 322 317 316 311 307 306 303 303 304 303 302 296 294 295 290 289 286 288 288 284 283 279 274 284 282
131 259 155 262 284 307 102 350 325 294 287 5 332 315 317 326 317 316 327 324 317 316 313 312 315 313 306 303 305 301 297 297 293 294 291 289 287 277 279 274 274 274 286 300
351 345 298 315 281 258 31 20 358 38 294 316 315 317 320 313 306 315 319 321 318 317 316 316 316 310 307 309 306 304 299 295 295 293 292 288 280 272 272 276 271 285 303 282
301 1 327 359 298 309 4 12 87 264 305 319 325 323 318 320 318 321 322 320 319 319 320 318 318 316 315 313 312 306 298 298 295 294 292 285 274 269 268 272 257 270 280 268
334 249 195 173 236 356 341 344 339 331 322 324 325 326 326 328 324 323 321 322 322 320 320 322 319 321 326 325 321 312 312 308 300 290 285 283 273 281 279 275 270 258 257 238
295 21 24 23 300 349 335 334 328 322 324 329 329 324 327 328 325 323 325 323 322 323 322 327 327 325 326 326 318 312 309 305 295 282 267 255 300 343 326 298 202 230 218 195
331 51 354 269 323 333 316 321 316 329 337 335 328 329 328 333 327 327 325 325 324 324 327 330 328 328 329 330 323 319 300 290 283 271 236 245 324 340 197 175 166 180 179 176
105 188 155 243 305 290 302 317 333 349 343 336 336 334 332 337 331 331 327 327 326 326 332 335 336 336 332 338 320 327 291 271 264 247 206 152 305 307 153 101 175 184 168 166